Overview Statistics Trail Chart Weather Telemetry Raw packets
 

This is the latest recevied weather packets stored in our database for station/object NR0A-4. If no packets are shown the sender has not sent any weather packets the latest 10 day(s).

<< 53 54 55 56 57 58 59 >>
Time Temp. Humidity Pressure Rain* Wind** Luminosity Snow
1788300303 31.11° C 65% 1011.5 hPa 0 mm - 315 W/m² -
1788300004 30.56° C 65% 1011.5 hPa 0 mm - 336 W/m² -
1788299704 31.11° C 64% 1011.4 hPa 0 mm - 362 W/m² -
1788299404 31.11° C 64% 1011.4 hPa 0 mm - 366 W/m² -
1788299105 31.11° C 65% 1011.3 hPa 0 mm - 397 W/m² -
1788298804 31.11° C 64% 1011.3 hPa 0 mm - 436 W/m² -
1788298504 31.67° C 64% 1011.2 hPa 0 mm - 404 W/m² -
1788298204 31.67° C 64% 1011.4 hPa 0 mm - 434 W/m² -
1788297904 31.67° C 62% 1011.4 hPa 0 mm - 462 W/m² -
1788297604 31.67° C 64% 1011.6 hPa 0 mm - 550 W/m² -
1788297305 31.67° C 63% 1011.7 hPa 0 mm - 656 W/m² -
1788297004 31.67° C 62% 1011.6 hPa 0 mm - 654 W/m² -
1788296704 32.22° C 64% 1011.9 hPa 0 mm - 654 W/m² -
1788296405 31.67° C 65% 1012 hPa 0 mm - 668 W/m² -
1788296104 31.67° C 65% 1011.9 hPa 0 mm - 656 W/m² -
1788295804 31.67° C 63% 1012.1 hPa 0 mm - 652 W/m² -
1788295504 31.67° C 64% 1012.2 hPa 0 mm - 652 W/m² -
1788295204 31.67° C 62% 1012.3 hPa 0 mm - 206 W/m² -
1788294904 31.67° C 64% 1012.4 hPa 0 mm - 654 W/m² -
1788294630 31.67° C 62% 1012.4 hPa 0 mm - 647 W/m² -
1788294304 31.67° C 63% 1012.6 hPa 0 mm - 642 W/m² -
1788294005 31.67° C 62% 1012.6 hPa 0 mm - 640 W/m² -
1788293704 31.67° C 63% 1012.5 hPa 0 mm - 668 W/m² -
1788293405 31.67° C 64% 1012.6 hPa 0 mm - 668 W/m² -
1788293104 31.67° C 62% 1012.7 hPa 0 mm - 643 W/m² -

* Rain latest hour (hover to see other rain measurements)
** Current wind speed in m/s (hover to see current wind gust speed)